iso_date,epoch_date,Year,Hour,Min,DOY,POS_DOY,Lat,Lon,BP,Ts,Ta,has_bp,has_ts,has_ta,BuoyID,Buoy_Type,Buoy_Owner,Logistics,Hemisphere
2014-04-01T12:00:00Z,1396353600,2014,12,0,91.5,-999.0,83.9733,-39.5498,1023.83,-999.00,-24.93,yes,no,yes,300234011040710,IMB,CRREL,unknown,North
2014-04-01T16:00:28Z,1396368029,2014,16,0,91.667,-999.0,83.9733,-39.5496,1021.71,-999.00,-26.8,yes,no,yes,300234011040710,IMB,CRREL,unknown,North
2014-04-01T19:59:31Z,1396382371,2014,20,0,91.833,-999.0,83.9733,-39.5496,1020.15,-999.00,-27.73,yes,no,yes,300234011040710,IMB,CRREL,unknown,North
2014-04-01T21:00:00Z,1396386000,2014,21,0,91.875,124.5,76.7522,-162.485,1019.86,-999.00,-28.45,yes,no,yes,300234011040710,IMB,CRREL,unknown,North
2014-04-01T22:00:28Z,1396389629,2014,22,0,91.917,124.5,76.7522,-162.485,1019.53,-999.00,-29.28,yes,no,yes,300234011040710,IMB,CRREL,unknown,North
2014-04-01T22:59:31Z,1396393171,2014,23,0,91.958,124.5,76.7522,-162.485,1019.24,-999.00,-29.48,yes,no,yes,300234011040710,IMB,CRREL,unknown,North
2014-04-02T00:00:00Z,1396396800,2014,0,0,92.0,92.0,83.9733,-39.5496,1018.91,-999.00,-29.85,yes,no,yes,300234011040710,IMB,CRREL,unknown,North
2014-04-02T01:00:28Z,1396400429,2014,1,0,92.042,92.0,83.9733,-39.5496,1018.63,-999.00,-30.27,yes,no,yes,300234011040710,IMB,CRREL,unknown,North
2014-04-02T01:59:31Z,1396403971,2014,2,0,92.083,92.0,83.9733,-39.5496,1018.16,-999.00,-30.44,yes,no,yes,300234011040710,IMB,CRREL,unknown,North
2014-04-02T03:00:00Z,1396407600,2014,3,0,92.125,92.0,83.9733,-39.5496,1017.96,-999.00,-30.95,yes,no,yes,300234011040710,IMB,CRREL,unknown,North
2014-04-02T04:00:28Z,1396411229,2014,4,0,92.167,92.167,83.9733,-39.5499,1017.64,-999.00,-31.12,yes,no,yes,300234011040710,IMB,CRREL,unknown,North
2014-04-02T04:59:31Z,1396414771,2014,5,0,92.208,92.167,83.9733,-39.5499,1017.27,-999.00,-31.12,yes,no,yes,300234011040710,IMB,CRREL,unknown,North
2014-04-02T06:00:00Z,1396418400,2014,6,0,92.25,92.167,83.9733,-39.5499,1016.7,-999.00,-31.25,yes,no,yes,300234011040710,IMB,CRREL,unknown,North
2014-04-02T07:00:28Z,1396422029,2014,7,0,92.292,92.167,83.9733,-39.5499,1016.33,-999.00,-30.99,yes,no,yes,300234011040710,IMB,CRREL,unknown,North
2014-04-02T07:59:31Z,1396425571,2014,8,0,92.333,92.333,83.9733,-39.55,1016.12,-999.00,-31.01,yes,no,yes,300234011040710,IMB,CRREL,unknown,North
2014-04-02T09:00:00Z,1396429200,2014,9,0,92.375,92.333,83.9733,-39.55,1015.88,-999.00,-30.73,yes,no,yes,300234011040710,IMB,CRREL,unknown,North
2014-04-02T10:00:28Z,1396432829,2014,10,0,92.417,92.333,83.9733,-39.55,1015.79,-999.00,-30.35,yes,no,yes,300234011040710,IMB,CRREL,unknown,North
2014-04-02T10:59:31Z,1396436371,2014,11,0,92.458,92.333,83.9733,-39.55,1015.22,-999.00,-29.81,yes,no,yes,300234011040710,IMB,CRREL,unknown,North
2014-04-02T12:00:00Z,1396440000,2014,12,0,92.5,92.5,83.9733,-39.5499,1015.14,-999.00,-29.0,yes,no,yes,300234011040710,IMB,CRREL,unknown,North
2014-04-02T13:00:28Z,1396443629,2014,13,0,92.542,92.5,83.9733,-39.5499,1014.89,-999.00,-28.98,yes,no,yes,300234011040710,IMB,CRREL,unknown,North
2014-04-02T13:59:31Z,1396447171,2014,14,0,92.583,92.5,83.9733,-39.5499,1014.69,-999.00,-28.18,yes,no,yes,300234011040710,IMB,CRREL,unknown,North
2014-04-02T15:00:00Z,1396450800,2014,15,0,92.625,92.5,83.9733,-39.5499,1014.39,-999.00,-27.8,yes,no,yes,300234011040710,IMB,CRREL,unknown,North
2014-04-02T16:00:28Z,1396454429,2014,16,0,92.667,92.667,83.9733,-39.5497,1014.13,-999.00,-27.73,yes,no,yes,300234011040710,IMB,CRREL,unknown,North
2014-04-02T16:59:31Z,1396457971,2014,17,0,92.708,92.667,83.9733,-39.5497,1013.95,-999.00,-28.26,yes,no,yes,300234011040710,IMB,CRREL,unknown,North
2014-04-02T18:00:00Z,1396461600,2014,18,0,92.75,92.667,83.9733,-39.5497,1013.78,-999.00,-28.03,yes,no,yes,300234011040710,IMB,CRREL,unknown,North
2014-04-02T19:00:28Z,1396465229,2014,19,0,92.792,92.667,83.9733,-39.5497,1013.36,-999.00,-27.61,yes,no,yes,300234011040710,IMB,CRREL,unknown,North
2014-04-02T19:59:31Z,1396468771,2014,20,0,92.833,92.833,83.9733,-39.5498,1013.23,-999.00,-28.11,yes,no,yes,300234011040710,IMB,CRREL,unknown,North
2014-04-02T21:00:00Z,1396472400,2014,21,0,92.875,92.833,83.9733,-39.5498,1013.11,-999.00,-28.34,yes,no,yes,300234011040710,IMB,CRREL,unknown,North
2014-04-02T22:00:28Z,1396476029,2014,22,0,92.917,92.833,83.9733,-39.5498,1012.86,-999.00,-28.3,yes,no,yes,300234011040710,IMB,CRREL,unknown,North
2014-04-02T22:59:31Z,1396479571,2014,23,0,92.958,92.833,83.9733,-39.5498,1012.54,-999.00,-27.65,yes,no,yes,300234011040710,IMB,CRREL,unknown,North
2014-04-03T00:00:00Z,1396483200,2014,0,0,93.0,93.0,83.9734,-39.5495,1012.28,-999.00,-28.14,yes,no,yes,300234011040710,IMB,CRREL,unknown,North
2014-04-03T01:00:28Z,1396486829,2014,1,0,93.042,93.0,83.9734,-39.5495,1012.16,-999.00,-28.53,yes,no,yes,300234011040710,IMB,CRREL,unknown,North
2014-04-03T01:59:31Z,1396490371,2014,2,0,93.083,93.0,83.9734,-39.5495,1012.12,-999.00,-28.8,yes,no,yes,300234011040710,IMB,CRREL,unknown,North
2014-04-03T03:00:00Z,1396494000,2014,3,0,93.125,93.0,83.9734,-39.5495,1011.79,-999.00,-28.88,yes,no,yes,300234011040710,IMB,CRREL,unknown,North
2014-04-03T04:00:28Z,1396497629,2014,4,0,93.167,93.167,83.9739,-39.5404,1011.6,-999.00,-28.63,yes,no,yes,300234011040710,IMB,CRREL,unknown,North
2014-04-03T04:59:31Z,1396501171,2014,5,0,93.208,93.167,83.9739,-39.5404,1011.14,-999.00,-27.88,yes,no,yes,300234011040710,IMB,CRREL,unknown,North
2014-04-03T06:00:00Z,1396504800,2014,6,0,93.25,93.167,83.9739,-39.5404,1010.73,-999.00,-26.62,yes,no,yes,300234011040710,IMB,CRREL,unknown,North
2014-04-03T07:00:28Z,1396508429,2014,7,0,93.292,93.167,83.9739,-39.5404,1010.64,-999.00,-24.59,yes,no,yes,300234011040710,IMB,CRREL,unknown,North
2014-04-03T07:59:31Z,1396511971,2014,8,0,93.333,93.333,83.9773,-39.4508,1010.6,-999.00,-23.45,yes,no,yes,300234011040710,IMB,CRREL,unknown,North
2014-04-03T09:00:00Z,1396515600,2014,9,0,93.375,93.333,83.9773,-39.4508,1010.14,-999.00,-22.24,yes,no,yes,300234011040710,IMB,CRREL,unknown,North
2014-04-03T10:00:28Z,1396519229,2014,10,0,93.417,93.333,83.9773,-39.4508,1009.82,-999.00,-21.97,yes,no,yes,300234011040710,IMB,CRREL,unknown,North
2014-04-03T10:59:31Z,1396522771,2014,11,0,93.458,93.333,83.9773,-39.4508,1009.65,-999.00,-21.58,yes,no,yes,300234011040710,IMB,CRREL,unknown,North
2014-04-03T12:00:00Z,1396526400,2014,12,0,93.5,93.5,83.9825,-39.2072,1009.24,-999.00,-20.96,yes,no,yes,300234011040710,IMB,CRREL,unknown,North
2014-04-03T13:00:28Z,1396530029,2014,13,0,93.542,93.5,83.9825,-39.2072,1008.83,-999.00,-20.73,yes,no,yes,300234011040710,IMB,CRREL,unknown,North
2014-04-03T13:59:31Z,1396533571,2014,14,0,93.583,93.5,83.9825,-39.2072,1008.42,-999.00,-20.25,yes,no,yes,300234011040710,IMB,CRREL,unknown,North
2014-04-03T15:00:00Z,1396537200,2014,15,0,93.625,93.5,83.9825,-39.2072,1008.5,-999.00,-19.55,yes,no,yes,300234011040710,IMB,CRREL,unknown,North
2014-04-03T16:00:28Z,1396540829,2014,16,0,93.667,93.667,83.9865,-38.9496,1008.38,-999.00,-19.24,yes,no,yes,300234011040710,IMB,CRREL,unknown,North
2014-04-03T16:59:31Z,1396544371,2014,17,0,93.708,93.667,83.9865,-38.9496,1008.5,-999.00,-18.72,yes,no,yes,300234011040710,IMB,CRREL,unknown,North
2014-04-03T18:00:00Z,1396548000,2014,18,0,93.75,93.667,83.9865,-38.9496,1008.59,-999.00,-18.56,yes,no,yes,300234011040710,IMB,CRREL,unknown,North
2014-04-03T19:00:28Z,1396551629,2014,19,0,93.792,93.667,83.9865,-38.9496,1008.59,-999.00,-18.21,yes,no,yes,300234011040710,IMB,CRREL,unknown,North
2014-04-03T19:59:31Z,1396555171,2014,20,0,93.833,93.833,83.9907,-38.701,1008.63,-999.00,-18.25,yes,no,yes,300234011040710,IMB,CRREL,unknown,North
2014-04-03T21:00:00Z,1396558800,2014,21,0,93.875,93.833,83.9907,-38.701,1008.83,-999.00,-18.27,yes,no,yes,300234011040710,IMB,CRREL,unknown,North
2014-04-03T22:00:28Z,1396562429,2014,22,0,93.917,93.833,83.9907,-38.701,1009.12,-999.00,-18.04,yes,no,yes,300234011040710,IMB,CRREL,unknown,North
2014-04-03T22:59:31Z,1396565971,2014,23,0,93.958,93.833,83.9907,-38.701,1008.95,-999.00,-18.2,yes,no,yes,300234011040710,IMB,CRREL,unknown,North
2014-04-04T00:00:00Z,1396569600,2014,0,0,94.0,94.0,83.994,-38.4479,1009.53,-999.00,-19.04,yes,no,yes,300234011040710,IMB,CRREL,unknown,North
2014-04-04T01:00:28Z,1396573229,2014,1,0,94.042,94.0,83.994,-38.4479,1009.49,-999.00,-19.67,yes,no,yes,300234011040710,IMB,CRREL,unknown,North
2014-04-04T01:59:31Z,1396576771,2014,2,0,94.083,94.0,83.994,-38.4479,1009.82,-999.00,-19.92,yes,no,yes,300234011040710,IMB,CRREL,unknown,North
2014-04-04T03:00:00Z,1396580400,2014,3,0,94.125,94.0,83.994,-38.4479,1010.1,-999.00,-20.15,yes,no,yes,300234011040710,IMB,CRREL,unknown,North
2014-04-04T04:00:28Z,1396584029,2014,4,0,94.167,94.167,83.9922,-38.3145,1010.18,-999.00,-20.15,yes,no,yes,300234011040710,IMB,CRREL,unknown,North
2014-04-04T04:59:31Z,1396587571,2014,5,0,94.208,94.167,83.9922,-38.3145,1010.35,-999.00,-20.09,yes,no,yes,300234011040710,IMB,CRREL,unknown,North
2014-04-04T06:00:00Z,1396591200,2014,6,0,94.25,94.167,83.9922,-38.3145,1010.23,-999.00,-20.18,yes,no,yes,300234011040710,IMB,CRREL,unknown,North
2014-04-04T07:00:28Z,1396594829,2014,7,0,94.292,94.167,83.9922,-38.3145,1010.1,-999.00,-20.61,yes,no,yes,300234011040710,IMB,CRREL,unknown,North
2014-04-04T07:59:31Z,1396598371,2014,8,0,94.333,94.333,83.9937,-38.242,1010.39,-999.00,-20.66,yes,no,yes,300234011040710,IMB,CRREL,unknown,North
2014-04-04T09:00:00Z,1396602000,2014,9,0,94.375,94.333,83.9937,-38.242,1010.27,-999.00,-21.1,yes,no,yes,300234011040710,IMB,CRREL,unknown,North
2014-04-04T10:00:28Z,1396605629,2014,10,0,94.417,94.333,83.9937,-38.242,1010.47,-999.00,-21.16,yes,no,yes,300234011040710,IMB,CRREL,unknown,North
2014-04-04T10:59:31Z,1396609171,2014,11,0,94.458,94.333,83.9937,-38.242,1010.27,-999.00,-20.98,yes,no,yes,300234011040710,IMB,CRREL,unknown,North
2014-04-04T12:00:00Z,1396612800,2014,12,0,94.5,94.5,83.997,-38.2124,1010.06,-999.00,-20.75,yes,no,yes,300234011040710,IMB,CRREL,unknown,North
2014-04-04T13:00:28Z,1396616429,2014,13,0,94.542,94.5,83.997,-38.2124,1009.65,-999.00,-20.69,yes,no,yes,300234011040710,IMB,CRREL,unknown,North
2014-04-04T13:59:31Z,1396619971,2014,14,0,94.583,94.5,83.997,-38.2124,1009.65,-999.00,-20.78,yes,no,yes,300234011040710,IMB,CRREL,unknown,North
2014-04-04T15:00:00Z,1396623600,2014,15,0,94.625,94.5,83.997,-38.2124,1009.53,-999.00,-20.75,yes,no,yes,300234011040710,IMB,CRREL,unknown,North
2014-04-04T16:00:28Z,1396627229,2014,16,0,94.667,94.667,83.9972,-38.2113,1009.49,-999.00,-21.01,yes,no,yes,300234011040710,IMB,CRREL,unknown,North
2014-04-04T16:59:31Z,1396630771,2014,17,0,94.708,94.667,83.9972,-38.2113,1009.41,-999.00,-21.43,yes,no,yes,300234011040710,IMB,CRREL,unknown,North
2014-04-04T18:00:00Z,1396634400,2014,18,0,94.75,94.667,83.9972,-38.2113,1009.2,-999.00,-21.93,yes,no,yes,300234011040710,IMB,CRREL,unknown,North
2014-04-04T19:00:28Z,1396638029,2014,19,0,94.792,94.667,83.9972,-38.2113,1009.32,-999.00,-22.11,yes,no,yes,300234011040710,IMB,CRREL,unknown,North
2014-04-04T19:59:31Z,1396641571,2014,20,0,94.833,94.833,83.9975,-38.2083,1009.41,-999.00,-22.6,yes,no,yes,300234011040710,IMB,CRREL,unknown,North
2014-04-04T21:00:00Z,1396645200,2014,21,0,94.875,94.833,83.9975,-38.2083,1009.36,-999.00,-22.94,yes,no,yes,300234011040710,IMB,CRREL,unknown,North
2014-04-04T22:00:28Z,1396648829,2014,22,0,94.917,94.833,83.9975,-38.2083,1009.49,-999.00,-22.97,yes,no,yes,300234011040710,IMB,CRREL,unknown,North
2014-04-04T22:59:31Z,1396652371,2014,23,0,94.958,94.833,83.9975,-38.2083,1009.61,-999.00,-23.35,yes,no,yes,300234011040710,IMB,CRREL,unknown,North
2014-04-05T00:00:00Z,1396656000,2014,0,0,95.0,95.0,83.9975,-38.2081,1009.73,-999.00,-23.7,yes,no,yes,300234011040710,IMB,CRREL,unknown,North
2014-04-05T01:00:28Z,1396659629,2014,1,0,95.042,95.0,83.9975,-38.2081,1009.69,-999.00,-24.18,yes,no,yes,300234011040710,IMB,CRREL,unknown,North
2014-04-05T01:59:31Z,1396663171,2014,2,0,95.083,95.0,83.9975,-38.2081,1009.82,-999.00,-24.43,yes,no,yes,300234011040710,IMB,CRREL,unknown,North
2014-04-05T03:00:00Z,1396666800,2014,3,0,95.125,95.0,83.9975,-38.2081,1010.23,-999.00,-24.05,yes,no,yes,300234011040710,IMB,CRREL,unknown,North
2014-04-05T04:00:28Z,1396670429,2014,4,0,95.167,95.167,83.9975,-38.2085,1010.39,-999.00,-23.99,yes,no,yes,300234011040710,IMB,CRREL,unknown,North
2014-04-05T04:59:31Z,1396673971,2014,5,0,95.208,95.167,83.9975,-38.2085,1010.35,-999.00,-24.22,yes,no,yes,300234011040710,IMB,CRREL,unknown,North
2014-04-05T06:00:00Z,1396677600,2014,6,0,95.25,95.167,83.9975,-38.2085,1010.47,-999.00,-24.35,yes,no,yes,300234011040710,IMB,CRREL,unknown,North
2014-04-05T07:00:28Z,1396681229,2014,7,0,95.292,95.167,83.9975,-38.2085,1010.64,-999.00,-24.31,yes,no,yes,300234011040710,IMB,CRREL,unknown,North
2014-04-05T07:59:31Z,1396684771,2014,8,0,95.333,95.333,83.9973,-38.2094,1010.88,-999.00,-24.55,yes,no,yes,300234011040710,IMB,CRREL,unknown,North
2014-04-05T09:00:00Z,1396688400,2014,9,0,95.375,95.333,83.9973,-38.2094,1011.46,-999.00,-24.58,yes,no,yes,300234011040710,IMB,CRREL,unknown,North
2014-04-05T10:00:28Z,1396692029,2014,10,0,95.417,95.333,83.9973,-38.2094,1011.83,-999.00,-24.6,yes,no,yes,300234011040710,IMB,CRREL,unknown,North
2014-04-05T10:59:31Z,1396695571,2014,11,0,95.458,95.333,83.9973,-38.2094,1012.28,-999.00,-24.81,yes,no,yes,300234011040710,IMB,CRREL,unknown,North
2014-04-05T12:00:00Z,1396699200,2014,12,0,95.5,95.5,83.9973,-38.2094,1012.52,-999.00,-25.35,yes,no,yes,300234011040710,IMB,CRREL,unknown,North
2014-04-05T13:00:28Z,1396702829,2014,13,0,95.542,95.5,83.9973,-38.2094,1012.77,-999.00,-25.7,yes,no,yes,300234011040710,IMB,CRREL,unknown,North
2014-04-05T13:59:31Z,1396706371,2014,14,0,95.583,95.5,83.9973,-38.2094,1013.06,-999.00,-25.35,yes,no,yes,300234011040710,IMB,CRREL,unknown,North
2014-04-05T15:00:00Z,1396710000,2014,15,0,95.625,95.5,83.9973,-38.2094,1013.26,-999.00,-24.71,yes,no,yes,300234011040710,IMB,CRREL,unknown,North
2014-04-05T16:00:28Z,1396713629,2014,16,0,95.667,95.667,83.9973,-38.2096,1013.75,-999.00,-24.61,yes,no,yes,300234011040710,IMB,CRREL,unknown,North
2014-04-05T16:59:31Z,1396717171,2014,17,0,95.708,95.667,83.9973,-38.2096,1013.96,-999.00,-24.25,yes,no,yes,300234011040710,IMB,CRREL,unknown,North
2014-04-05T18:00:00Z,1396720800,2014,18,0,95.75,95.667,83.9973,-38.2096,1014.29,-999.00,-24.23,yes,no,yes,300234011040710,IMB,CRREL,unknown,North
2014-04-05T19:00:28Z,1396724429,2014,19,0,95.792,95.667,83.9973,-38.2096,1014.7,-999.00,-24.15,yes,no,yes,300234011040710,IMB,CRREL,unknown,North
2014-04-05T19:59:31Z,1396727971,2014,20,0,95.833,95.833,83.9973,-38.2096,1015.23,-999.00,-24.25,yes,no,yes,300234011040710,IMB,CRREL,unknown,North
2014-04-05T21:00:00Z,1396731600,2014,21,0,95.875,95.833,83.9973,-38.2096,1015.56,-999.00,-24.35,yes,no,yes,300234011040710,IMB,CRREL,unknown,North
2014-04-05T22:00:28Z,1396735229,2014,22,0,95.917,95.833,83.9973,-38.2096,1015.89,-999.00,-24.63,yes,no,yes,300234011040710,IMB,CRREL,unknown,North
2014-04-05T22:59:31Z,1396738771,2014,23,0,95.958,95.833,83.9973,-38.2096,1016.38,-999.00,-25.1,yes,no,yes,300234011040710,IMB,CRREL,unknown,North
2014-04-06T00:00:00Z,1396742400,2014,0,0,96.0,96.0,83.9973,-38.2096,1016.95,-999.00,-25.25,yes,no,yes,300234011040710,IMB,CRREL,unknown,North
2014-04-06T01:00:28Z,1396746029,2014,1,0,96.042,96.0,83.9973,-38.2096,1017.2,-999.00,-24.95,yes,no,yes,300234011040710,IMB,CRREL,unknown,North
2014-04-06T01:59:31Z,1396749571,2014,2,0,96.083,96.0,83.9973,-38.2096,1017.53,-999.00,-25.1,yes,no,yes,300234011040710,IMB,CRREL,unknown,North
2014-04-06T03:00:00Z,1396753200,2014,3,0,96.125,96.0,83.9973,-38.2096,1018.14,-999.00,-25.96,yes,no,yes,300234011040710,IMB,CRREL,unknown,North
2014-04-06T04:00:28Z,1396756829,2014,4,0,96.167,96.167,83.9973,-38.2097,1018.43,-999.00,-26.01,yes,no,yes,300234011040710,IMB,CRREL,unknown,North
2014-04-06T04:59:31Z,1396760371,2014,5,0,96.208,96.167,83.9973,-38.2097,1018.67,-999.00,-25.63,yes,no,yes,300234011040710,IMB,CRREL,unknown,North
2014-04-06T06:00:00Z,1396764000,2014,6,0,96.25,96.167,83.9973,-38.2097,1019.0,-999.00,-24.98,yes,no,yes,300234011040710,IMB,CRREL,unknown,North
2014-04-06T07:00:28Z,1396767629,2014,7,0,96.292,96.167,83.9973,-38.2097,1019.0,-999.00,-24.45,yes,no,yes,300234011040710,IMB,CRREL,unknown,North
2014-04-06T07:59:31Z,1396771171,2014,8,0,96.333,96.333,83.9973,-38.2099,1019.41,-999.00,-25.56,yes,no,yes,300234011040710,IMB,CRREL,unknown,North
2014-04-06T09:00:00Z,1396774800,2014,9,0,96.375,96.333,83.9973,-38.2099,1019.62,-999.00,-25.97,yes,no,yes,300234011040710,IMB,CRREL,unknown,North
2014-04-06T10:00:28Z,1396778429,2014,10,0,96.417,96.333,83.9973,-38.2099,1019.95,-999.00,-25.71,yes,no,yes,300234011040710,IMB,CRREL,unknown,North
2014-04-06T10:59:31Z,1396781971,2014,11,0,96.458,96.333,83.9973,-38.2099,1020.44,-999.00,-24.9,yes,no,yes,300234011040710,IMB,CRREL,unknown,North
2014-04-06T12:00:00Z,1396785600,2014,12,0,96.5,96.5,83.9973,-38.2098,1020.77,-999.00,-24.45,yes,no,yes,300234011040710,IMB,CRREL,unknown,North
2014-04-06T13:00:28Z,1396789229,2014,13,0,96.542,96.5,83.9973,-38.2098,1020.89,-999.00,-24.45,yes,no,yes,300234011040710,IMB,CRREL,unknown,North
2014-04-06T13:59:31Z,1396792771,2014,14,0,96.583,96.5,83.9973,-38.2098,1020.93,-999.00,-23.44,yes,no,yes,300234011040710,IMB,CRREL,unknown,North
2014-04-06T15:00:00Z,1396796400,2014,15,0,96.625,96.5,83.9973,-38.2098,1021.26,-999.00,-22.91,yes,no,yes,300234011040710,IMB,CRREL,unknown,North
2014-04-06T16:00:28Z,1396800029,2014,16,0,96.667,96.667,83.9973,-38.2098,1021.38,-999.00,-22.91,yes,no,yes,300234011040710,IMB,CRREL,unknown,North
2014-04-06T16:59:31Z,1396803571,2014,17,0,96.708,96.667,83.9973,-38.2098,1021.46,-999.00,-23.0,yes,no,yes,300234011040710,IMB,CRREL,unknown,North
2014-04-06T18:00:00Z,1396807200,2014,18,0,96.75,96.667,83.9973,-38.2098,1021.42,-999.00,-23.52,yes,no,yes,300234011040710,IMB,CRREL,unknown,North
2014-04-06T19:00:28Z,1396810829,2014,19,0,96.792,96.667,83.9973,-38.2098,1021.38,-999.00,-24.51,yes,no,yes,300234011040710,IMB,CRREL,unknown,North
2014-04-06T19:59:31Z,1396814371,2014,20,0,96.833,96.833,83.9973,-38.2097,1021.63,-999.00,-25.05,yes,no,yes,300234011040710,IMB,CRREL,unknown,North
2014-04-06T21:00:00Z,1396818000,2014,21,0,96.875,96.833,83.9973,-38.2097,1021.83,-999.00,-25.7,yes,no,yes,300234011040710,IMB,CRREL,unknown,North
2014-04-06T22:00:28Z,1396821629,2014,22,0,96.917,96.833,83.9973,-38.2097,1022.04,-999.00,-26.36,yes,no,yes,300234011040710,IMB,CRREL,unknown,North
2014-04-06T22:59:31Z,1396825171,2014,23,0,96.958,96.833,83.9973,-38.2097,1022.04,-999.00,-27.08,yes,no,yes,300234011040710,IMB,CRREL,unknown,North
2014-04-07T00:00:00Z,1396828800,2014,0,0,97.0,97.0,83.9973,-38.2098,1022.28,-999.00,-27.96,yes,no,yes,300234011040710,IMB,CRREL,unknown,North
2014-04-07T01:00:28Z,1396832429,2014,1,0,97.042,97.0,83.9973,-38.2098,1022.08,-999.00,-28.23,yes,no,yes,300234011040710,IMB,CRREL,unknown,North
2014-04-07T01:59:31Z,1396835971,2014,2,0,97.083,97.0,83.9973,-38.2098,1022.12,-999.00,-28.56,yes,no,yes,300234011040710,IMB,CRREL,unknown,North
2014-04-07T03:00:00Z,1396839600,2014,3,0,97.125,97.0,83.9973,-38.2098,1021.95,-999.00,-29.05,yes,no,yes,300234011040710,IMB,CRREL,unknown,North
2014-04-07T04:00:28Z,1396843229,2014,4,0,97.167,97.167,83.9973,-38.2099,1021.63,-999.00,-28.89,yes,no,yes,300234011040710,IMB,CRREL,unknown,North
2014-04-07T04:59:31Z,1396846771,2014,5,0,97.208,97.167,83.9973,-38.2099,1021.5,-999.00,-28.44,yes,no,yes,300234011040710,IMB,CRREL,unknown,North
2014-04-07T06:00:00Z,1396850400,2014,6,0,97.25,97.167,83.9973,-38.2099,1021.67,-999.00,-27.98,yes,no,yes,300234011040710,IMB,CRREL,unknown,North
2014-04-07T07:00:28Z,1396854029,2014,7,0,97.292,97.167,83.9973,-38.2099,1021.67,-999.00,-26.81,yes,no,yes,300234011040710,IMB,CRREL,unknown,North
2014-04-07T07:59:31Z,1396857571,2014,8,0,97.333,97.333,83.9972,-38.2101,1021.95,-999.00,-25.8,yes,no,yes,300234011040710,IMB,CRREL,unknown,North
2014-04-07T09:00:00Z,1396861200,2014,9,0,97.375,97.333,83.9972,-38.2101,1022.16,-999.00,-25.16,yes,no,yes,300234011040710,IMB,CRREL,unknown,North
2014-04-07T10:00:28Z,1396864829,2014,10,0,97.417,97.333,83.9972,-38.2101,1022.37,-999.00,-24.59,yes,no,yes,300234011040710,IMB,CRREL,unknown,North
2014-04-07T10:59:31Z,1396868371,2014,11,0,97.458,97.333,83.9972,-38.2101,1022.57,-999.00,-23.99,yes,no,yes,300234011040710,IMB,CRREL,unknown,North
2014-04-07T12:00:00Z,1396872000,2014,12,0,97.5,97.5,83.9972,-38.2102,1022.78,-999.00,-23.63,yes,no,yes,300234011040710,IMB,CRREL,unknown,North
2014-04-07T13:00:28Z,1396875629,2014,13,0,97.542,97.5,83.9972,-38.2102,1022.61,-999.00,-23.16,yes,no,yes,300234011040710,IMB,CRREL,unknown,North
2014-04-07T13:59:31Z,1396879171,2014,14,0,97.583,97.5,83.9972,-38.2102,1022.78,-999.00,-23.35,yes,no,yes,300234011040710,IMB,CRREL,unknown,North
2014-04-07T15:00:00Z,1396882800,2014,15,0,97.625,97.5,83.9972,-38.2102,1022.61,-999.00,-23.96,yes,no,yes,300234011040710,IMB,CRREL,unknown,North
2014-04-07T16:00:28Z,1396886429,2014,16,0,97.667,97.667,83.9972,-38.2101,1022.61,-999.00,-24.35,yes,no,yes,300234011040710,IMB,CRREL,unknown,North
2014-04-07T16:59:31Z,1396889971,2014,17,0,97.708,97.667,83.9972,-38.2101,1022.45,-999.00,-24.51,yes,no,yes,300234011040710,IMB,CRREL,unknown,North
2014-04-07T18:00:00Z,1396893600,2014,18,0,97.75,97.667,83.9972,-38.2101,1022.45,-999.00,-24.5,yes,no,yes,300234011040710,IMB,CRREL,unknown,North
2014-04-07T19:00:28Z,1396897229,2014,19,0,97.792,97.667,83.9972,-38.2101,1022.61,-999.00,-24.58,yes,no,yes,300234011040710,IMB,CRREL,unknown,North
2014-04-07T19:59:31Z,1396900771,2014,20,0,97.833,97.833,83.9972,-38.2103,1022.45,-999.00,-24.55,yes,no,yes,300234011040710,IMB,CRREL,unknown,North
2014-04-07T21:00:00Z,1396904400,2014,21,0,97.875,97.833,83.9972,-38.2103,1022.2,-999.00,-24.38,yes,no,yes,300234011040710,IMB,CRREL,unknown,North
2014-04-07T22:00:28Z,1396908029,2014,22,0,97.917,97.833,83.9972,-38.2103,1022.45,-999.00,-24.18,yes,no,yes,300234011040710,IMB,CRREL,unknown,North
2014-04-07T22:59:31Z,1396911571,2014,23,0,97.958,97.833,83.9972,-38.2103,1022.28,-999.00,-23.92,yes,no,yes,300234011040710,IMB,CRREL,unknown,North
2014-04-08T00:00:00Z,1396915200,2014,0,0,98.0,98.0,83.9972,-38.2103,1022.2,-999.00,-23.89,yes,no,yes,300234011040710,IMB,CRREL,unknown,North
2014-04-08T01:00:28Z,1396918829,2014,1,0,98.042,98.0,83.9972,-38.2103,1021.83,-999.00,-24.22,yes,no,yes,300234011040710,IMB,CRREL,unknown,North
2014-04-08T01:59:31Z,1396922371,2014,2,0,98.083,98.0,83.9972,-38.2103,1021.63,-999.00,-25.1,yes,no,yes,300234011040710,IMB,CRREL,unknown,North
2014-04-08T03:00:00Z,1396926000,2014,3,0,98.125,98.0,83.9972,-38.2103,1021.59,-999.00,-27.23,yes,no,yes,300234011040710,IMB,CRREL,unknown,North
2014-04-08T04:00:28Z,1396929629,2014,4,0,98.167,98.167,83.9972,-38.2107,1021.13,-999.00,-29.23,yes,no,yes,300234011040710,IMB,CRREL,unknown,North
2014-04-08T04:59:31Z,1396933171,2014,5,0,98.208,98.167,83.9972,-38.2107,1020.81,-999.00,-30.13,yes,no,yes,300234011040710,IMB,CRREL,unknown,North
2014-04-08T06:00:00Z,1396936800,2014,6,0,98.25,98.167,83.9972,-38.2107,1020.31,-999.00,-30.42,yes,no,yes,300234011040710,IMB,CRREL,unknown,North
2014-04-08T07:00:28Z,1396940429,2014,7,0,98.292,98.167,83.9972,-38.2107,1020.03,-999.00,-30.72,yes,no,yes,300234011040710,IMB,CRREL,unknown,North
2014-04-08T07:59:31Z,1396943971,2014,8,0,98.333,98.333,83.9972,-38.2108,1020.11,-999.00,-30.23,yes,no,yes,300234011040710,IMB,CRREL,unknown,North
2014-04-08T09:00:00Z,1396947600,2014,9,0,98.375,98.333,83.9972,-38.2108,1019.86,-999.00,-30.21,yes,no,yes,300234011040710,IMB,CRREL,unknown,North
2014-04-08T10:00:28Z,1396951229,2014,10,0,98.417,98.333,83.9972,-38.2108,1019.74,-999.00,-29.65,yes,no,yes,300234011040710,IMB,CRREL,unknown,North
2014-04-08T10:59:31Z,1396954771,2014,11,0,98.458,98.333,83.9972,-38.2108,1019.58,-999.00,-28.95,yes,no,yes,300234011040710,IMB,CRREL,unknown,North
2014-04-08T12:00:00Z,1396958400,2014,12,0,98.5,98.5,83.9971,-38.211,1019.41,-999.00,-28.4,yes,no,yes,300234011040710,IMB,CRREL,unknown,North
2014-04-08T13:00:28Z,1396962029,2014,13,0,98.542,98.5,83.9971,-38.211,1019.0,-999.00,-28.46,yes,no,yes,300234011040710,IMB,CRREL,unknown,North